This is the latest recevied weather packets stored in our database for station/object PA3EUZ. If no packets are shown the sender has not sent any weather packets the latest 10 day(s).
| Time | Temp. | Humidity | Pressure | Rain* | Wind** | Luminosity | Snow |
|---|---|---|---|---|---|---|---|
| 1777846518 | 12.22° C | 95% | 1011.4 hPa | 0 mm | - | 0 W/m² | - |
| 1777842036 | 12.78° C | 94% | 1011.1 hPa | 0 mm | - | 0 W/m² | - |
| 1777833917 | 13.89° C | 94% | 1010.3 hPa | 0.25 mm | - | 14 W/m² | - |
| 1777830316 | 13.89° C | 94% | 1010.2 hPa | 0.76 mm | - | 32 W/m² | - |
| 1777828517 | 13.89° C | 93% | 1010.2 hPa | 1.02 mm | - | 30 W/m² | - |
| 1777823116 | 16.11° C | 89% | 1010.2 hPa | 5.08 mm | - | 22 W/m² | - |
| 1777821318 | 17.22° C | 88% | 1009.6 hPa | 0.76 mm | - | 19 W/m² | - |
| 1777815018 | 14.44° C | 93% | 1010.3 hPa | 0.51 mm | - | 70 W/m² | - |
| 1777813238 | 15.56° C | 91% | 1010.4 hPa | 0.51 mm | - | 61 W/m² | - |
| 1777812319 | 16.11° C | 92% | 1010.4 hPa | 0.51 mm | - | 53 W/m² | - |
| 1777811418 | 16.11° C | 92% | 1010.3 hPa | 0.25 mm | - | 129 W/m² | - |
| 1777806918 | 15.56° C | 93% | 1010.6 hPa | 0.76 mm | - | 121 W/m² | - |
| 1777806018 | 15.56° C | 93% | 1010.7 hPa | 0.51 mm | - | 127 W/m² | - |
| 1777804218 | 15.56° C | 93% | 1010.8 hPa | 0.51 mm | - | 141 W/m² | - |
| 1777802418 | 15.56° C | 93% | 1010.9 hPa | 0.76 mm | - | 177 W/m² | - |
| 1777797018 | 15.56° C | 92% | 1011 hPa | 0.51 mm | - | 79 W/m² | - |
| 1777792518 | 15.56° C | 93% | 1010.5 hPa | 0 mm | - | 106 W/m² | - |
| 1777785318 | 14.44° C | 94% | 1010.2 hPa | 0 mm | - | 14 W/m² | - |
| 1777771818 | 14.44° C | 93% | 1012 hPa | 0 mm | - | 0 W/m² | - |
| 1777767318 | 14.44° C | 93% | 1012.1 hPa | 0 mm | - | 0 W/m² | - |
| 1777761917 | 14.44° C | 92% | 1012.4 hPa | 0.25 mm | - | 0 W/m² | - |
| 1777761018 | 14.44° C | 92% | 1012 hPa | 0.25 mm | - | 0 W/m² | - |
| 1777757417 | 14.44° C | 92% | 1012.7 hPa | 0 mm | - | 0 W/m² | - |
| 1777755616 | 14.44° C | 91% | 1012.3 hPa | 2.29 mm | - | 0 W/m² | - |
| 1777754716 | 14.44° C | 91% | 1012.7 hPa | 3.3 mm | - | 0 W/m² | - |
* Rain latest hour (hover to see other rain measurements)
** Current wind speed in m/s (hover to see current wind gust speed)